User: anonymous   Login
Location: Hamburg
(53.5500°N, 10.0000°E)
Time: 03:31:11
(UTC+02:00)
Language:

Courier 1B - Orbit

View from above orbital plane
View from above orbital plane
View from above satellite
View from above satellite

Ground track
Ground track

The orbit data is extracted from the following two-line orbital elements,

1    58U 60013A   15245.55079710 +.00000098 +00000-0 +20995-4 0  9990
2    58 028.3293 332.1960 0165062 341.8853 017.5864 13.46295679702628
Epoch (UTC): 02 September 2015 13:13:08
Eccentricity: 0.0165062
inclination: 28.3293°
perigee height: 963 km
apogee height: 1209 km
right ascension of ascending node: 332.1960°
argument of perigee: 341.8853°
revolutions per day: 13.46295679
mean anomaly at epoch: 17.5864°
orbit number at epoch: 70262

The dashed part of the orbit path shows where the satellite is in the earth's shadow,  

DLR